Theta_e
352 351 350 348 347 346 346 348 348 348 349 348 349 349 350 350 351 351 351 351 351 351 351 351 351 351 352 352 352 351 350 349 346 345 346 347 347 347 346 346 346 346 345 344 344 344 343 343 344 346 347 347 347 347 347 346 346 345 344 344 344 345 344 343 343 342 343 344 344 344 343 342 343 342 342 343 342 341 340 338 337 338 339 339 339
349 349 348 347 346 346 348 349 349 349 348 347 348 349 351 351 351 351 350 350 349 349 349 349 349 350 351 351 351 351 350 347 346 347 347 347 347 347 347 347 347 347 346 345 344 344 344 344 344 345 347 347 347 347 347 347 346 345 345 345 344 344 343 342 343 342 342 343 344 343 343 342 342 341 342 342 341 341 339 337 337 338 338 338 337
348 348 348 347 347 348 349 349 348 347 346 346 349 351 351 350 350 349 349 349 349 349 349 349 349 351 351 351 350 349 348 348 347 347 347 347 347 347 347 346 346 346 345 344 345 345 346 346 346 345 346 347 347 347 347 347 347 346 346 345 344 343 342 342 342 341 342 343 343 343 343 343 342 341 341 342 341 340 338 338 338 338 339 338 336
347 347 346 346 348 348 349 347 346 345 346 347 349 350 349 349 349 349 349 348 348 349 350 350 349 351 351 350 349 348 348 348 348 347 347 348 347 347 346 345 344 344 343 343 345 346 347 348 348 347 347 347 347 347 347 347 346 346 346 345 344 344 342 343 343 341 341 343 344 343 343 343 342 341 341 342 341 339 339 339 339 339 339 338 336
346 346 345 347 348 348 347 345 344 345 345 345 346 347 347 348 348 347 347 347 348 348 350 349 349 350 350 349 347 348 349 348 348 347 347 347 347 346 344 343 343 341 341 342 344 346 347 348 347 347 348 348 348 347 347 347 346 346 346 345 345 344 343 343 343 341 341 342 343 343 343 342 342 342 341 341 340 339 340 340 340 339 339 339 337
345 345 346 347 348 346 344 344 344 344 344 343 343 344 345 347 347 345 345 345 345 346 347 348 348 348 348 347 348 348 348 347 347 347 347 347 346 345 342 341 341 339 340 342 344 344 346 347 347 347 347 347 348 347 347 347 347 347 346 345 345 345 343 343 343 341 341 342 342 342 343 342 342 342 342 341 341 340 340 340 340 340 339 339 338
344 344 346 348 347 345 343 343 344 344 344 343 342 342 343 345 346 345 345 345 345 345 345 345 346 346 346 346 348 348 348 346 346 346 347 347 347 346 342 340 339 339 340 341 342 343 344 346 347 348 347 348 348 348 348 347 347 347 347 346 345 345 344 344 343 342 342 342 342 342 343 342 342 342 343 341 341 340 340 340 340 340 339 339 339
344 345 347 347 346 344 344 343 343 343 344 343 343 343 343 344 344 344 344 345 346 346 346 345 345 345 346 347 347 347 347 346 346 347 347 347 348 347 344 343 341 339 338 339 342 343 344 345 346 347 347 348 348 348 348 347 348 347 347 347 345 345 345 344 344 342 342 342 341 343 343 342 342 342 342 341 341 341 340 340 339 339 339 339 339
345 346 347 347 345 345 343 342 341 341 342 343 343 342 343 344 344 345 344 344 345 345 346 345 345 346 346 346 346 347 346 347 347 348 348 348 349 347 346 346 340 337 338 339 343 343 341 342 345 346 347 348 348 348 349 349 348 347 347 346 345 345 345 345 344 342 342 342 342 343 343 342 341 342 342 341 341 341 340 339 338 339 340 340 340
344 345 346 345 344 344 342 340 339 338 339 340 341 342 343 343 344 345 345 346 347 346 345 344 344 345 346 346 347 347 347 347 348 348 347 348 349 347 347 346 339 337 338 339 341 341 339 340 341 343 344 347 348 348 348 348 349 348 347 347 346 346 345 344 344 343 342 342 342 343 342 341 341 341 342 342 341 341 340 338 339 339 340 341 340
344 344 343 342 341 342 341 339 339 339 337 337 338 339 341 342 342 343 344 345 346 346 346 346 345 345 345 346 346 346 346 346 347 346 346 347 348 347 347 344 341 340 339 337 339 339 338 339 339 339 343 345 347 348 348 348 348 347 348 347 346 346 345 345 345 344 343 343 342 343 343 342 342 342 342 342 341 340 339 338 339 339 339 340 340
344 343 341 339 337 340 341 339 339 340 339 337 335 334 336 339 341 341 341 343 344 344 345 345 345 345 345 345 345 345 345 345 346 345 345 346 346 346 346 346 344 341 338 335 337 339 338 338 337 338 342 344 346 348 349 348 348 347 348 348 347 346 345 345 345 344 343 344 342 342 344 343 343 343 342 342 340 339 338 338 338 338 339 340 340
344 343 341 336 334 338 340 338 338 338 337 337 335 330 329 332 337 338 337 340 342 340 341 343 342 344 345 345 345 344 342 343 344 344 344 345 346 346 346 347 344 340 337 333 333 337 338 338 337 338 340 343 344 347 348 348 348 347 347 348 348 347 345 344 344 344 344 343 341 340 343 343 343 343 342 342 341 338 338 339 339 339 339 339 338
343 343 339 333 332 337 339 338 338 338 336 335 333 328 322 324 332 335 333 337 341 338 336 339 338 339 343 343 342 341 339 338 341 343 343 344 346 346 346 345 343 339 335 331 331 335 336 337 337 338 338 342 344 345 347 348 348 348 348 347 347 346 346 344 344 344 343 343 341 340 343 343 343 344 342 341 341 339 339 340 340 339 338 335 333
344 342 338 333 334 336 338 338 338 338 336 332 330 326 319 321 330 333 332 333 338 335 330 331 332 333 339 339 337 337 335 334 337 339 340 343 344 344 344 342 340 337 333 330 331 332 333 333 335 337 337 339 343 345 346 347 347 347 348 347 347 346 345 344 344 344 343 343 342 340 342 342 342 343 342 341 341 340 341 340 340 339 339 334 330
344 342 338 337 337 337 337 338 338 335 333 330 329 326 319 322 329 331 330 329 330 329 325 324 326 326 330 332 331 332 330 330 334 336 336 340 343 343 342 339 337 337 334 331 330 332 331 328 329 332 335 337 341 344 345 347 347 347 348 347 347 346 345 343 344 344 343 342 342 340 341 341 341 342 341 341 340 340 340 339 339 339 340 336 329
344 341 339 340 339 339 339 339 337 333 330 328 328 326 319 320 328 328 328 327 326 325 324 323 324 323 324 326 326 326 327 328 332 335 334 339 343 344 341 339 337 338 337 334 332 333 330 325 325 327 332 338 341 344 345 346 347 347 348 347 347 346 344 344 343 344 344 342 342 341 340 340 340 341 340 341 340 340 339 339 339 339 341 338 330
344 342 341 341 339 340 339 338 337 333 330 328 328 327 321 318 324 327 326 326 325 324 324 324 324 324 323 324 324 324 326 326 327 330 334 337 342 345 344 342 341 340 338 336 334 333 329 326 325 326 333 339 341 343 345 346 346 347 347 347 346 345 344 344 343 344 343 342 343 342 340 339 340 340 340 340 340 340 339 339 339 339 340 340 333
343 342 341 340 340 341 340 338 335 331 329 329 328 329 326 321 322 326 324 323 325 325 323 324 324 324 324 324 324 323 324 324 324 326 329 331 334 337 338 337 339 341 341 339 337 334 332 330 327 327 332 336 338 342 344 346 346 346 346 346 345 344 344 344 344 344 343 344 345 343 340 339 340 340 340 341 341 340 339 338 339 340 340 341 338
341 341 340 339 340 341 340 338 335 331 331 331 330 331 331 326 323 324 324 321 323 324 323 324 324 324 325 324 324 324 323 324 325 326 327 326 325 326 327 328 332 338 340 342 340 336 333 333 330 328 329 331 336 340 342 345 346 346 346 346 345 344 344 343 343 345 345 344 344 342 340 339 340 340 340 341 342 340 339 338 339 341 340 340 339
341 340 340 340 341 341 341 337 334 332 332 332 333 334 332 328 324 322 323 321 320 323 323 324 324 324 325 323 323 323 323 323 325 326 326 324 323 322 324 326 329 335 340 342 342 338 336 335 332 329 327 329 335 339 340 342 345 346 345 344 344 343 343 344 343 344 344 343 343 342 341 340 339 340 341 341 341 340 339 339 340 341 341 341 339
342 341 342 341 341 340 338 335 333 332 331 332 334 334 330 328 326 322 322 323 322 321 322 323 324 324 325 323 323 323 323 323 324 325 325 323 323 322 322 324 327 332 339 343 343 341 338 335 332 331 329 329 332 337 339 340 343 344 344 344 343 343 343 344 344 344 343 341 341 341 341 340 339 340 341 342 342 341 340 340 340 340 341 340 340
343 342 342 342 341 339 336 333 333 333 332 333 333 332 328 326 327 323 320 323 323 320 320 323 323 324 325 325 325 324 323 324 325 325 325 324 322 322 322 322 323 327 333 339 340 340 339 337 334 331 330 330 329 331 335 339 341 342 344 344 343 343 343 344 343 344 342 340 341 341 341 341 340 341 341 341 341 340 340 340 340 341 341 340 340
345 344 343 341 340 339 335 334 335 334 333 332 332 331 328 324 328 326 318 319 323 321 319 321 322 323 325 326 325 324 324 325 325 324 323 322 322 322 322 323 323 324 325 327 330 333 338 339 335 331 330 330 328 326 331 337 339 339 341 343 343 343 343 343 343 343 342 342 341 342 342 342 341 341 341 341 341 341 340 340 340 341 340 339 339
345 345 344 342 341 339 336 336 336 335 333 333 333 332 326 323 329 327 317 318 326 323 319 321 322 321 324 325 324 323 324 325 324 322 321 323 324 323 323 324 325 324 323 323 326 329 335 339 337 330 329 330 328 327 329 333 335 335 335 338 341 342 343 343 342 342 342 342 343 342 341 342 342 341 341 341 341 340 339 339 340 341 341 340 340
346 345 344 342 341 339 337 338 337 335 335 335 335 332 325 322 327 326 316 320 329 325 321 322 321 319 322 325 325 324 324 325 323 322 323 325 326 325 323 323 323 323 323 323 327 330 333 338 337 331 330 330 327 326 328 331 333 333 332 333 336 339 342 343 343 343 342 342 342 341 341 341 341 341 341 341 340 339 339 338 340 341 341 341 341
344 345 343 342 341 338 337 338 338 336 335 334 336 334 326 320 323 322 316 318 325 325 324 324 321 318 319 323 327 326 325 326 324 324 325 326 327 327 324 323 323 323 323 324 326 329 331 334 334 330 330 329 326 326 327 330 335 334 331 332 333 334 337 339 340 341 342 342 342 342 340 340 341 342 341 340 339 339 339 339 339 341 341 341 341
344 344 342 340 341 339 337 337 337 336 335 335 335 332 324 319 319 320 317 317 321 323 325 326 324 322 319 319 325 325 325 327 326 324 325 325 327 327 325 325 326 325 325 324 325 326 327 328 328 326 326 326 326 325 325 331 337 336 333 334 334 333 334 335 337 337 338 339 340 341 341 341 342 342 341 341 340 339 340 339 339 340 340 340 340
343 342 339 337 340 339 338 337 336 337 336 335 332 325 319 318 319 321 320 320 322 323 325 326 325 325 321 320 325 324 324 328 326 325 325 325 326 326 326 326 326 326 326 325 327 326 325 325 325 325 325 325 327 328 328 331 334 332 331 334 335 335 336 337 336 336 336 336 337 339 340 341 342 343 341 341 341 340 340 340 340 339 339 340 340
344 343 340 338 340 339 338 337 337 338 336 332 326 320 316 317 320 322 323 326 327 326 326 326 326 324 322 324 327 326 326 328 326 326 327 326 325 325 326 326 325 326 325 326 327 326 324 324 324 325 325 325 328 330 329 329 329 329 329 331 332 334 335 335 333 333 334 334 335 336 337 338 341 342 342 342 342 340 340 340 340 339 338 340 340
344 345 343 341 340 340 339 338 337 337 333 325 319 315 314 316 319 322 323 325 328 328 327 327 327 324 320 323 328 327 327 327 326 327 328 326 326 325 325 325 325 325 326 327 327 326 324 324 324 324 325 325 326 327 326 326 326 328 329 329 329 329 331 331 330 330 330 330 330 331 333 334 336 338 341 342 342 343 342 341 340 340 339 340 340
343 343 341 340 339 339 339 338 337 335 327 318 312 311 312 315 318 319 321 324 326 327 327 325 326 325 320 321 327 327 326 327 327 327 328 327 326 325 324 325 325 325 326 326 326 325 324 324 324 324 324 324 324 325 325 325 325 325 327 327 327 327 327 327 327 326 327 327 327 328 329 330 332 334 336 338 340 341 343 343 342 341 341 340 340
343 341 341 340 340 339 338 336 335 330 320 311 309 309 310 311 313 314 318 322 323 322 322 321 321 320 319 320 324 325 324 325 325 325 326 327 326 326 325 325 325 324 325 324 324 324 324 324 324 324 324 324 324 324 324 324 324 324 324 325 325 326 326 326 326 326 325 326 327 327 327 328 330 332 334 335 336 337 338 340 342 342 342 341 340
343 342 342 340 339 337 336 335 334 326 315 309 308 307 307 308 308 310 314 319 322 321 322 323 322 320 320 321 322 322 322 322 322 322 323 324 325 326 325 325 325 324 324 324 323 323 323 323 323 323 323 323 323 323 323 323 323 323 323 323 324 324 324 325 325 325 325 324 324 325 326 327 328 331 333 333 335 335 334 335 339 341 343 344 342
343 343 341 339 337 336 336 336 331 321 311 307 308 307 307 307 310 315 320 321 323 324 323 324 324 322 320 321 323 324 324 324 324 324 323 323 324 324 324 325 325 325 324 324 324 324 323 323 323 324 324 324 324 323 323 323 323 322 322 323 322 323 323 324 324 324 324 324 322 322 324 326 326 328 332 332 334 336 334 334 335 336 338 341 341
343 343 341 338 337 336 336 335 325 314 308 307 307 307 307 309 313 319 324 325 324 324 322 322 323 322 320 321 324 325 325 326 326 325 324 323 323 323 323 323 324 324 324 324 324 324 324 324 324 324 325 325 325 325 324 324 324 323 323 323 322 323 323 323 323 323 322 322 321 320 320 323 325 327 330 331 332 335 334 333 333 332 331 334 334
342 341 339 338 337 336 337 332 320 309 307 307 307 307 308 312 317 322 325 326 325 324 322 321 322 321 321 323 325 326 326 326 326 324 322 322 321 321 321 322 322 323 323 324 324 323 324 323 324 325 325 325 325 325 325 325 325 324 324 324 324 324 324 323 323 323 323 322 321 320 318 319 322 325 328 330 331 333 333 331 332 332 332 330 329
341 340 339 338 337 337 336 329 317 308 307 307 306 307 309 315 321 324 325 326 325 324 323 322 321 320 322 324 326 326 326 325 324 322 321 320 320 320 322 322 323 322 323 323 324 323 323 323 324 325 325 325 325 325 325 325 325 325 325 324 325 325 325 324 324 324 323 322 322 321 318 317 319 322 324 328 330 332 332 332 331 331 332 329 327
340 339 339 338 336 337 334 324 314 309 307 306 307 308 313 320 325 325 325 325 325 324 324 323 321 322 323 324 325 326 324 323 323 321 321 320 319 321 324 325 325 324 323 323 323 324 323 323 324 324 325 324 324 325 325 325 325 325 324 324 325 325 325 326 326 326 325 324 324 323 320 318 320 323 324 327 330 330 331 332 332 331 331 328 326
340 339 339 337 337 337 332 320 311 308 306 306 309 311 316 323 326 325 325 325 325 324 324 323 320 321 323 324 323 322 322 322 322 321 321 320 319 321 326 327 325 325 325 324 324 324 324 324 324 324 324 324 324 324 324 324 324 324 324 324 325 325 325 325 326 327 327 325 325 326 325 323 324 327 328 329 330 329 329 330 331 332 332 330 327
341 339 338 337 337 334 326 316 309 308 307 306 309 312 317 323 326 325 324 325 325 324 324 323 320 319 322 322 321 320 321 321 321 321 321 320 320 323 327 326 326 325 325 324 325 324 324 324 324 324 324 323 323 323 324 324 324 324 324 324 325 325 325 325 325 326 326 326 326 326 326 325 325 328 330 331 330 329 328 328 329 330 331 331 329
340 338 338 338 336 328 319 314 311 312 310 307 309 313 317 322 324 325 325 324 324 324 324 324 321 319 320 320 320 321 321 321 321 321 320 320 322 326 327 326 326 326 325 324 324 324 324 324 323 323 323 322 323 323 323 324 324 324 324 324 324 324 324 324 325 325 326 326 326 326 326 325 325 326 329 330 330 330 330 328 327 327 328 329 330
339 338 338 337 335 328 320 315 315 316 315 312 310 312 316 321 323 324 324 324 323 324 324 323 322 320 319 320 320 321 321 321 321 320 320 320 322 325 327 326 326 326 325 325 324 324 324 323 323 323 323 322 323 323 323 324 324 324 324 323 323 323 323 323 324 325 325 325 325 326 326 325 324 325 326 328 329 329 329 329 328 327 327 327 328
338 339 339 337 336 332 321 316 319 320 320 318 313 309 313 321 324 323 324 324 323 324 324 323 322 321 320 322 322 321 321 321 321 320 320 320 320 322 323 324 325 325 325 325 324 324 323 323 323 322 323 323 322 322 322 322 322 323 322 322 321 321 321 322 323 324 325 325 325 326 326 326 325 324 324 326 328 329 329 328 328 327 327 326 326
339 339 338 336 336 331 320 318 322 323 323 321 313 305 309 317 321 322 324 324 324 324 323 322 323 323 322 323 324 322 321 321 321 321 321 320 320 321 321 321 322 323 325 325 324 324 324 323 322 323 323 322 322 322 321 321 321 322 322 321 322 321 321 321 322 323 324 324 324 325 326 326 327 325 324 325 327 328 328 328 328 327 326 326 326
340 339 338 336 336 331 321 319 322 323 323 318 310 304 306 311 318 322 323 323 323 322 321 321 323 323 323 324 324 322 320 321 321 321 321 321 320 320 320 320 320 321 323 323 323 323 324 323 322 322 322 322 322 322 322 322 322 322 322 322 321 322 322 322 322 323 323 323 323 324 325 325 326 326 326 325 325 327 327 327 328 327 327 327 327
340 339 338 336 335 331 321 316 319 322 320 314 308 307 305 306 312 318 322 323 322 321 320 322 322 322 323 324 324 322 320 320 321 321 321 321 320 320 321 321 321 321 322 322 322 323 323 323 322 322 323 322 323 322 322 322 323 323 323 322 321 322 322 323 323 323 323 324 323 323 324 325 326 326 326 326 326 325 326 326 326 327 328 328 328
340 340 337 335 334 332 323 315 317 319 316 311 309 309 306 305 308 311 315 317 320 320 321 321 322 322 323 324 323 321 320 320 322 322 321 321 320 321 322 322 322 322 322 323 323 323 323 323 323 323 323 323 323 323 322 323 323 324 323 323 322 322 323 323 323 324 323 324 324 324 325 326 326 326 326 326 326 326 325 325 324 325 327 327 328
340 338 335 334 334 330 321 315 316 317 314 313 314 313 310 307 307 307 307 309 314 318 319 321 321 322 323 324 322 320 320 321 322 322 321 321 320 321 322 322 322 323 323 323 323 323 323 322 322 323 323 323 323 322 323 323 324 324 324 323 323 323 322 323 323 324 323 323 324 325 325 326 326 326 326 326 327 326 326 326 325 324 325 324 325
339 336 334 334 331 324 316 315 315 315 315 318 321 321 315 310 307 307 305 306 310 314 318 320 320 320 323 322 320 319 320 322 322 322 321 321 321 321 322 323 323 323 323 323 323 323 323 323 323 323 323 324 323 323 324 324 325 324 324 323 323 323 322 323 323 323 323 323 324 324 325 325 326 326 327 327 326 326 326 327 327 326 326 325 326
337 336 334 331 325 317 314 315 315 316 320 324 326 327 321 311 307 307 306 307 310 314 318 320 319 320 321 320 318 320 322 322 322 321 321 321 321 321 322 323 323 323 323 324 323 323 323 323 324 323 323 324 323 323 324 324 324 324 323 323 323 323 323 323 323 323 323 323 323 324 324 324 325 326 327 326 326 326 326 326 326 327 328 328 328
Wind_Speed
10 12 14 17 19 19 17 15 14 13 14 15 15 14 13 14 14 13 13 13 13 13 14 13 12 11 11 12 13 15 14 10 8 6 5 5 7 9 8 7 6 6 5 4 4 4 6 9 13 15 18 20 23 25 27 28 27 27 27 27 28 28 28 28 28 27 28 28 27 27 28 27 27 27 26 26 26 26 25 25 24 23 23 22 22
11 14 15 16 16 15 14 13 12 13 14 16 15 14 13 12 11 11 11 11 12 12 12 10 9 6 6 8 10 12 11 9 8 7 6 6 7 7 7 6 6 6 6 6 6 6 7 9 11 14 17 19 22 24 27 28 29 29 28 28 29 30 30 29 29 29 29 29 28 28 28 28 28 28 27 26 27 27 26 25 24 24 23 23 23
13 14 14 13 12 10 11 11 12 14 15 16 14 12 11 10 11 11 11 11 10 9 8 6 6 4 2 4 7 11 12 10 8 8 7 6 6 6 5 5 5 5 6 7 7 9 9 10 11 13 17 19 22 24 26 28 30 30 29 29 30 31 31 32 31 30 30 31 30 29 29 29 29 29 28 27 28 27 27 26 24 24 24 24 24
12 12 11 10 8 8 10 11 13 15 15 15 13 11 11 11 11 11 12 11 9 7 6 5 4 4 3 6 10 13 11 9 8 9 9 7 7 6 4 3 4 5 6 7 8 10 11 11 11 12 16 19 22 24 25 27 30 30 30 30 31 32 32 33 32 31 31 31 31 30 29 29 29 29 29 28 28 28 27 26 25 25 24 24 24
11 9 8 7 6 8 11 13 15 16 16 16 15 14 14 13 13 13 14 14 12 9 8 7 7 6 7 10 12 11 9 9 8 9 9 8 8 6 4 2 3 4 6 7 7 8 10 11 11 12 15 18 21 23 24 27 30 31 32 31 32 33 33 33 33 33 32 32 32 31 30 30 30 30 29 29 29 28 27 27 26 26 25 24 24
9 8 7 5 6 9 12 14 16 17 17 18 19 19 18 17 16 16 17 18 17 15 12 10 8 8 9 10 10 8 8 9 9 8 7 6 5 4 4 2 2 3 5 6 7 7 7 9 10 12 14 15 19 23 24 26 29 31 32 33 34 34 34 34 34 33 33 33 33 33 31 31 31 30 29 29 29 28 28 27 26 26 25 25 25
6 6 5 5 8 10 11 13 16 17 18 19 19 20 20 18 17 17 16 16 16 16 14 12 10 9 9 8 7 7 8 9 8 6 4 3 3 4 3 0 3 4 5 6 7 7 7 9 9 10 13 14 17 21 24 26 28 30 32 34 35 35 35 35 33 33 34 33 33 34 33 31 31 30 30 30 30 29 29 28 26 26 25 26 26
5 6 5 7 9 10 10 12 14 15 16 17 17 18 18 18 18 16 16 15 15 14 13 12 11 9 8 7 8 8 8 7 5 3 1 2 2 3 3 1 4 5 7 7 7 8 8 9 9 9 13 15 15 19 22 25 28 30 32 35 35 35 36 36 34 34 35 34 34 35 34 33 32 31 31 31 30 30 29 28 27 26 26 26 26
4 5 6 7 9 9 9 10 11 13 14 14 14 14 15 15 15 15 15 15 15 14 12 11 10 10 9 8 8 7 6 5 3 2 1 1 2 1 2 2 4 5 8 8 7 8 8 8 9 10 11 13 14 16 20 23 26 29 32 34 35 36 36 35 35 35 35 35 35 36 35 34 33 32 32 31 30 30 29 28 27 27 26 26 26
4 5 6 6 7 7 7 8 9 11 12 13 12 11 11 12 12 12 12 12 13 13 13 11 9 8 8 7 6 6 6 5 3 2 1 1 0 2 2 3 5 6 8 9 7 8 9 9 9 10 10 11 13 15 17 20 23 27 30 32 34 36 36 35 36 36 35 35 36 36 34 34 34 33 32 31 30 30 30 29 28 28 27 27 26
5 5 6 6 6 6 5 6 8 9 11 13 12 10 9 9 9 9 9 9 9 10 12 12 10 8 6 5 4 4 4 3 2 1 2 2 2 4 4 5 6 7 8 9 7 8 10 9 10 11 11 10 12 14 16 18 21 23 27 30 33 35 35 35 35 34 34 34 35 33 33 33 34 33 33 31 30 30 30 30 29 28 28 27 26
5 6 6 7 7 6 6 8 9 10 11 13 14 12 9 8 8 8 9 8 7 8 8 9 10 9 7 6 4 4 3 3 2 2 3 3 4 4 4 6 8 8 9 9 8 9 10 10 11 12 12 11 11 13 15 17 19 20 24 28 31 35 35 34 33 32 33 33 33 33 33 34 34 34 33 32 31 31 31 30 30 29 28 27 26
5 6 7 8 6 6 8 10 11 11 12 12 14 13 9 7 6 7 8 7 7 8 7 7 8 8 8 7 6 6 6 4 3 3 3 4 4 4 5 7 8 8 9 9 8 9 10 11 13 13 13 13 11 11 13 15 17 18 21 25 29 33 35 34 32 33 33 33 33 33 32 33 34 34 33 32 30 30 31 31 30 29 28 28 27
5 7 8 7 6 6 8 9 9 10 11 12 13 13 10 7 5 5 7 7 7 7 8 7 7 7 6 6 5 5 5 5 3 3 4 3 3 4 5 7 8 8 8 9 8 8 10 12 13 14 14 14 11 9 10 13 16 17 19 23 27 31 33 33 32 32 33 32 32 32 31 31 33 33 33 32 30 29 31 30 30 29 28 28 28
6 7 8 7 7 7 7 7 7 8 9 11 13 14 10 7 5 4 6 8 7 7 9 8 7 5 5 5 5 4 4 5 4 3 3 2 2 3 5 6 7 5 7 9 7 8 10 12 12 13 15 15 12 9 9 10 14 16 18 21 24 29 32 32 31 32 32 31 31 31 31 31 32 32 32 32 30 30 31 30 29 29 27 27 28
7 8 8 7 6 6 6 6 7 8 8 10 13 15 12 6 6 4 5 8 9 9 10 9 8 6 5 5 6 6 6 7 5 3 4 4 2 4 6 6 5 4 6 9 8 9 12 13 13 13 15 15 13 9 7 8 11 13 15 18 22 27 30 30 31 31 31 31 31 32 32 31 31 31 31 32 31 31 31 31 30 29 28 27 28
7 8 7 5 4 5 7 7 7 7 7 9 12 15 13 7 6 6 4 7 9 10 10 10 10 9 8 7 5 5 6 7 6 4 5 6 4 4 6 6 3 4 6 8 8 10 13 14 13 14 15 15 14 10 6 7 9 12 14 17 21 26 28 28 29 30 30 30 30 33 33 32 32 32 32 32 31 31 31 31 31 31 29 27 27
7 6 4 3 4 6 8 8 8 6 5 7 11 14 14 10 7 7 5 5 5 7 8 8 8 9 9 9 5 3 6 8 7 5 4 6 6 6 7 8 7 7 7 8 9 10 12 13 14 14 14 14 14 11 6 6 8 10 13 17 21 25 27 27 28 29 29 30 31 33 33 32 33 33 32 32 31 31 31 32 32 32 31 29 28
6 5 2 3 6 8 9 11 8 4 5 6 10 14 14 13 10 7 6 5 3 5 7 6 7 8 8 8 6 6 9 10 8 6 5 6 6 5 7 10 10 10 9 9 9 9 11 13 14 14 14 15 15 14 8 4 7 9 12 16 20 23 25 25 27 28 29 30 32 32 32 32 33 32 32 33 32 31 31 32 33 33 33 31 30
7 4 4 6 8 7 9 12 7 3 6 7 9 13 14 14 12 7 6 6 5 6 7 7 8 9 8 8 9 9 10 11 9 7 6 8 8 7 9 9 8 9 10 11 9 9 10 11 13 14 14 15 15 15 11 5 7 10 12 16 19 20 22 25 26 28 29 29 31 31 31 31 32 33 33 32 32 31 31 32 34 34 34 33 33
6 5 8 10 10 9 11 11 5 4 7 8 8 11 13 13 12 9 8 8 8 8 7 8 10 11 9 9 10 9 9 9 9 8 7 8 9 9 11 11 7 5 9 12 11 8 8 9 12 14 14 15 14 13 13 9 4 9 12 14 17 18 21 24 25 27 28 27 29 30 30 31 33 33 33 33 33 31 30 31 33 34 34 34 34
5 6 9 10 9 10 11 10 8 8 9 8 8 9 11 12 11 11 9 8 8 8 8 8 9 11 10 9 10 9 8 9 9 9 9 9 9 9 10 12 12 7 5 11 12 9 6 7 10 12 13 14 14 13 13 12 6 5 10 13 15 16 18 21 23 25 28 27 28 29 29 31 33 33 33 32 31 30 30 31 31 32 33 33 34
4 6 8 8 8 10 11 10 10 10 9 8 8 9 11 11 10 10 11 8 6 6 6 6 7 9 9 9 10 11 11 11 12 10 10 11 10 8 9 10 11 11 6 5 8 8 5 6 8 10 12 13 14 14 13 12 8 2 7 12 15 16 17 19 22 24 26 27 27 28 29 31 32 32 33 32 30 29 30 30 30 31 32 33 34
4 4 6 6 8 11 10 9 9 9 8 8 9 10 11 10 9 10 11 8 5 4 4 5 5 7 9 8 9 11 11 12 13 12 11 11 8 7 7 9 9 10 9 6 5 5 3 2 5 7 10 12 13 13 13 12 10 7 3 6 12 15 17 19 21 23 25 25 26 27 27 30 31 31 31 30 29 30 30 30 30 31 32 33 34
3 2 4 5 7 10 9 8 7 7 7 8 10 12 11 8 7 9 10 8 5 4 4 4 4 5 6 6 6 9 11 11 11 11 9 8 7 6 7 9 9 10 10 8 6 2 2 2 3 6 8 10 12 12 12 11 10 10 10 7 5 10 17 20 21 22 23 23 24 26 26 27 29 30 30 30 30 30 30 30 31 32 32 32 32
3 1 2 3 5 8 7 6 5 4 5 7 10 13 11 7 5 7 10 7 5 5 4 4 4 3 3 3 4 5 8 9 8 7 6 6 8 8 7 8 8 10 10 9 8 4 2 3 3 5 6 8 12 10 8 9 9 9 10 10 9 5 8 17 21 22 22 22 22 23 24 25 27 28 29 29 30 30 30 30 31 32 31 30 29
6 3 1 1 3 4 4 2 1 2 5 8 11 13 11 7 6 7 9 6 3 5 6 5 5 4 3 2 1 1 4 6 5 4 5 6 8 8 6 8 9 8 8 8 10 9 6 6 5 5 5 7 10 6 4 5 4 4 7 9 10 10 8 1 7 12 17 21 22 23 24 25 26 28 28 29 29 30 30 30 30 30 30 29 28
7 4 2 2 1 0 1 1 2 3 5 9 12 14 10 6 6 7 8 7 4 4 5 6 6 7 5 2 0 1 2 4 3 2 5 7 8 7 7 7 9 8 6 7 8 9 8 8 8 7 6 7 7 3 1 1 2 1 3 8 8 9 11 11 9 5 2 7 14 19 22 24 27 27 28 28 29 30 30 31 31 30 30 29 28
7 7 5 4 3 3 3 3 3 5 7 10 12 11 7 5 6 8 8 7 6 4 3 5 6 7 6 3 3 1 1 4 3 3 7 9 7 4 5 5 7 7 5 4 6 8 7 7 7 5 5 6 6 3 3 2 2 1 4 7 6 6 7 8 9 8 7 5 2 6 12 20 27 29 28 28 28 30 31 31 31 31 31 30 29
9 9 6 5 5 5 5 5 5 6 9 11 10 7 5 5 6 7 6 5 5 3 2 5 6 7 5 2 3 3 3 4 4 5 8 9 7 5 5 5 5 6 5 1 5 7 4 4 6 4 2 4 5 5 6 8 7 5 5 5 3 2 4 6 6 5 4 5 4 4 5 9 17 24 27 29 29 29 30 31 31 31 32 31 31
10 8 5 5 6 6 6 6 6 8 11 11 7 5 6 5 5 5 3 2 2 1 2 4 6 7 5 3 3 3 4 5 4 6 8 7 7 7 6 5 3 4 4 1 5 5 3 2 4 3 1 3 1 2 3 5 5 4 3 2 0 1 1 2 1 1 1 2 3 4 6 5 6 11 17 23 26 29 29 30 30 31 32 32 31
10 6 4 5 6 6 6 6 7 9 11 9 7 6 5 5 5 4 1 1 1 1 3 5 6 8 8 5 5 6 6 6 6 7 9 8 8 7 6 5 3 1 2 2 3 3 1 1 2 1 2 5 6 5 5 4 4 2 1 1 1 2 2 2 3 4 4 3 3 2 4 6 7 7 8 11 15 21 26 29 29 30 31 32 32
8 6 5 5 6 6 6 6 7 9 10 8 7 6 4 5 5 3 2 3 3 3 5 6 7 7 6 5 6 8 9 9 9 10 10 10 9 8 7 6 5 4 3 4 4 4 5 5 6 6 6 8 9 10 10 10 11 10 8 6 6 5 6 5 5 6 7 8 7 6 5 5 8 8 8 7 6 9 14 19 24 30 32 32 32
7 6 5 5 5 4 4 5 8 10 9 8 7 6 5 5 5 3 1 1 3 5 7 8 9 7 6 6 6 8 9 10 10 10 10 11 11 11 10 9 8 8 7 8 9 10 12 12 12 12 11 12 12 13 14 14 14 14 13 12 12 11 11 10 10 10 11 11 11 11 9 8 8 9 9 7 6 7 6 7 12 21 28 32 33
8 6 5 4 3 3 4 7 10 10 8 7 7 6 6 6 6 7 7 7 9 10 9 9 9 9 8 8 8 10 11 9 8 8 8 9 10 10 11 10 10 9 9 10 10 12 14 14 14 14 13 13 14 14 15 16 16 16 16 16 16 15 15 15 15 15 15 16 16 15 14 12 10 10 10 8 8 9 7 5 5 7 13 22 25
7 6 4 3 3 4 6 9 10 9 7 7 7 7 6 6 7 8 9 9 11 12 12 10 9 9 9 9 10 12 11 9 9 10 11 11 11 11 11 11 10 9 9 9 9 10 12 13 12 11 11 11 12 13 14 14 15 16 17 17 16 15 15 15 15 16 17 18 20 20 19 17 13 11 11 10 10 10 7 7 7 6 7 10 13
5 4 2 2 3 4 6 10 10 8 8 8 8 7 5 6 7 7 7 7 9 13 14 11 9 9 10 12 13 13 11 9 9 11 12 12 12 11 11 10 10 9 8 7 8 10 11 12 10 8 8 8 8 9 11 11 11 11 12 15 15 13 13 14 14 13 14 15 18 20 21 21 19 15 14 13 12 11 9 10 11 10 10 10 11
5 4 2 2 2 4 7 10 9 9 10 9 8 7 5 6 6 5 5 5 7 11 13 14 13 11 10 12 13 13 11 11 11 13 14 14 12 10 8 8 8 8 8 7 8 9 9 10 10 7 7 7 7 8 9 9 8 8 7 9 11 10 10 12 13 13 13 13 14 18 20 20 21 19 17 15 14 12 11 11 12 11 11 11 11
6 5 4 3 2 4 8 9 8 9 10 8 8 7 7 7 5 4 5 5 5 9 13 15 14 12 12 12 12 12 13 13 14 15 16 16 14 11 9 9 8 7 7 7 7 8 8 8 9 8 7 7 8 8 9 9 9 9 8 7 7 7 6 7 9 10 11 12 12 14 15 16 18 19 18 16 14 12 11 11 13 13 12 12 12
6 5 4 2 2 5 9 8 6 9 9 9 9 8 8 7 4 4 5 4 4 9 12 15 14 11 11 12 12 13 13 13 13 15 17 16 13 11 11 11 10 8 6 6 7 7 7 7 8 8 8 8 8 9 9 9 8 8 8 7 7 6 5 5 6 7 8 10 11 11 10 12 15 16 16 15 14 11 10 11 13 13 13 13 15
6 5 3 1 4 8 8 5 5 9 10 10 10 8 7 7 4 5 5 3 5 9 12 16 15 11 10 12 13 13 12 12 13 15 16 13 10 10 11 10 10 9 8 7 7 7 7 7 8 8 8 8 9 9 9 8 8 8 7 8 8 8 6 5 5 6 7 9 11 11 9 9 12 14 14 15 14 12 12 12 11 12 13 14 16
6 5 2 2 6 8 6 3 6 10 11 13 11 8 6 6 4 4 4 4 6 8 11 15 15 11 9 11 13 13 12 13 15 17 15 10 7 8 10 9 9 9 8 8 8 7 7 8 7 7 6 7 8 8 8 7 8 8 9 9 9 9 8 6 4 5 7 8 9 11 10 9 10 11 13 15 15 13 13 13 12 11 12 14 15
6 4 1 3 6 9 7 4 7 10 12 14 12 8 5 5 3 2 4 5 6 6 9 13 14 12 12 14 15 15 15 16 17 16 15 11 6 6 7 8 8 9 8 8 8 7 7 7 7 7 6 6 6 7 8 8 8 8 10 11 11 11 10 7 5 4 5 7 8 9 11 11 11 11 12 14 15 14 13 14 14 14 15 16 16
6 3 1 4 6 9 9 5 6 10 12 13 13 9 4 2 1 3 4 5 5 6 8 12 13 13 14 15 17 16 16 18 18 15 15 14 9 6 6 5 5 7 7 7 7 7 7 7 7 7 8 7 7 8 9 9 8 9 10 10 11 11 11 10 8 5 5 6 7 8 9 11 13 13 13 13 15 17 17 17 17 18 18 18 19
6 3 1 3 6 9 9 5 5 8 11 11 12 11 6 1 1 4 4 4 4 6 9 11 12 13 14 16 17 17 17 18 17 15 16 15 11 9 7 5 4 5 5 5 7 8 8 8 8 7 8 9 8 7 7 8 8 9 9 9 9 9 9 10 10 7 6 7 7 7 8 9 11 14 15 15 15 16 17 18 19 20 20 21 21
6 2 1 3 5 8 8 4 4 7 10 10 11 12 8 3 3 5 5 5 5 6 8 9 10 12 13 15 16 17 18 18 16 15 15 14 11 10 9 7 4 3 3 4 6 7 7 9 9 8 7 8 7 6 7 8 8 8 8 8 8 7 7 8 8 7 7 8 8 7 7 8 9 12 15 17 17 16 15 15 16 16 18 20 20
6 3 2 3 5 7 7 5 5 7 9 9 10 12 11 6 4 6 7 7 6 5 6 8 9 11 12 13 15 16 18 18 16 15 15 13 11 9 9 9 8 6 5 5 6 7 8 8 8 7 7 7 7 7 7 8 8 8 7 7 7 6 5 5 6 7 7 7 7 7 7 7 8 10 12 14 16 17 16 15 14 13 14 15 16
7 4 4 4 5 8 8 7 6 6 7 9 12 14 14 11 7 6 8 9 8 5 5 6 8 10 10 11 14 16 17 16 14 14 15 13 9 8 8 9 8 7 6 7 8 8 8 7 7 7 7 7 6 6 7 7 7 6 6 6 6 5 5 4 5 6 7 7 7 7 7 6 7 8 10 11 13 15 16 16 16 15 14 14 12
7 5 4 4 6 8 9 7 5 4 6 10 14 16 16 15 12 8 6 7 8 7 5 6 7 8 8 11 14 16 16 14 13 14 14 11 7 6 7 8 7 6 6 7 8 7 7 7 7 7 7 6 5 6 6 7 6 4 5 6 5 5 5 5 5 5 6 6 7 7 7 6 6 7 7 8 10 13 14 15 16 17 17 16 13
6 4 3 4 6 7 7 5 2 4 8 12 15 17 18 18 16 12 7 5 5 5 5 5 7 7 8 13 15 14 13 12 12 14 14 9 6 6 7 8 7 7 8 8 7 6 6 7 7 7 6 5 5 5 5 6 6 5 5 5 5 5 5 4 4 5 5 6 6 7 7 7 7 7 7 7 8 10 12 13 13 14 16 17 16
4 3 4 6 6 5 3 3 5 8 11 13 15 17 19 19 18 16 11 5 4 4 3 4 6 7 9 12 13 12 11 11 11 14 14 10 6 6 7 8 8 9 9 9 9 8 7 6 6 6 6 6 6 5 4 5 6 5 5 4 4 5 5 4 3 4 5 6 6 6 7 7 8 8 8 8 7 6 8 10 10 10 12 14 16
Wind_Direction
311 310 313 319 322 324 328 331 331 331 332 331 330 331 328 322 319 315 312 308 307 306 304 302 297 288 265 247 242 238 235 228 213 201 198 199 198 203 212 223 244 261 270 276 268 259 248 238 233 228 225 223 222 220 219 218 215 213 212 209 207 204 203 203 203 203 201 200 199 198 197 195 195 197 197 194 193 192 191 191 191 192 193 193 194
318 319 321 323 325 330 335 339 339 338 337 336 336 335 332 332 333 331 327 323 322 317 312 305 297 292 264 245 232 219 207 191 183 181 177 182 189 194 205 225 249 263 274 280 275 264 255 250 241 232 229 227 226 223 221 221 217 214 213 210 209 207 204 203 203 204 203 200 200 199 198 195 194 196 196 194 193 193 192 192 192 192 193 192 193
325 325 323 325 331 339 343 345 347 347 345 346 347 344 345 351 351 347 341 342 345 341 339 327 316 326 283 231 195 181 173 169 167 167 166 170 179 188 209 231 252 266 278 281 280 275 267 261 250 237 232 230 229 227 224 224 222 216 212 211 211 209 206 204 204 204 203 201 200 199 198 196 195 196 196 194 194 193 191 192 192 192 192 190 191
330 327 326 333 342 350 358 2 4 3 4 8 9 4 6 9 6 5 4 8 17 23 32 38 35 53 99 133 152 159 158 160 160 159 162 165 174 187 205 233 263 275 283 283 284 285 280 274 267 253 239 234 233 230 226 225 224 219 215 212 211 211 209 206 204 204 203 201 201 200 198 198 198 197 196 195 195 194 191 191 193 193 193 191 191
333 333 338 348 1 13 23 27 26 26 28 32 33 30 32 31 29 32 34 38 46 51 53 57 63 77 102 121 138 150 153 157 162 164 167 167 173 182 185 216 275 287 290 294 296 292 287 279 272 268 256 243 238 234 229 225 224 221 218 215 213 212 210 208 205 203 203 202 201 201 199 199 200 198 196 196 196 195 193 192 194 194 194 193 192
336 346 358 13 34 39 43 46 43 42 42 44 44 43 42 41 42 44 47 52 57 59 60 64 70 82 101 116 130 143 153 157 165 172 174 172 177 185 181 195 307 318 307 310 313 310 299 282 268 267 267 254 242 237 232 228 226 223 220 217 215 212 209 209 206 203 204 203 201 201 200 200 200 198 196 197 196 196 195 194 196 196 196 196 194
348 7 21 46 57 57 56 53 50 49 49 49 48 47 46 45 46 46 46 50 55 57 60 68 78 89 104 118 133 146 154 158 166 174 181 192 197 200 196 355 7 353 332 320 316 318 314 298 283 272 269 260 246 240 234 230 227 226 222 218 216 212 208 207 205 204 205 205 203 202 201 200 199 197 196 197 197 196 195 195 196 197 199 199 197
13 32 46 66 69 68 63 56 52 51 51 52 52 52 51 48 48 47 48 50 53 55 58 69 82 94 106 120 135 148 155 158 169 179 221 237 201 198 207 323 2 2 347 327 310 316 321 315 305 286 272 265 256 247 239 232 228 226 225 221 217 212 207 205 204 206 206 205 205 204 202 200 197 196 196 197 197 196 195 196 197 198 200 201 200
41 50 63 77 76 72 65 59 54 50 50 52 53 54 53 53 53 49 51 54 55 57 60 69 81 92 100 110 123 135 139 141 165 183 210 204 172 213 227 271 339 359 349 328 309 315 327 329 319 304 289 276 268 258 245 236 229 225 225 224 219 213 208 206 204 205 206 205 206 206 202 199 197 196 196 196 195 194 195 196 198 199 200 200 201
56 62 74 80 77 73 68 62 56 50 48 47 47 50 50 52 55 53 51 51 51 56 60 64 71 84 96 104 111 118 121 126 148 156 77 89 86 323 290 296 333 353 342 322 309 319 333 338 329 319 306 288 277 271 257 243 233 227 226 224 220 215 209 207 207 206 206 205 207 207 201 198 198 196 196 195 194 195 196 196 198 200 201 201 201
69 75 76 69 71 78 69 53 46 43 41 38 36 38 39 37 43 51 50 45 45 50 56 59 58 62 75 84 94 106 108 110 122 53 10 12 333 323 322 323 331 333 324 315 309 322 334 339 336 330 317 300 284 275 264 251 240 232 228 224 220 217 210 208 209 207 207 208 208 207 201 199 199 196 196 196 195 197 197 198 199 200 202 202 203
79 78 69 60 63 75 67 44 35 34 30 27 23 18 17 14 19 35 41 45 46 49 58 61 55 50 51 56 67 78 67 49 39 10 349 336 322 321 327 320 315 314 317 321 315 317 332 339 341 338 326 315 295 274 262 253 244 235 229 225 219 216 211 209 209 207 209 210 208 208 203 199 199 198 197 197 199 198 198 200 201 201 201 201 202
84 75 62 54 56 71 70 50 36 30 24 18 12 7 359 352 1 22 34 49 57 53 57 62 55 48 49 58 70 76 64 38 17 7 354 334 318 317 313 303 304 315 324 326 320 320 336 343 345 345 337 328 314 285 261 248 244 236 229 225 218 213 209 206 207 207 208 208 207 209 206 201 201 200 198 199 200 198 197 199 201 201 202 202 203
86 75 62 56 63 78 78 60 40 27 21 12 5 5 359 349 2 37 47 61 71 55 47 52 54 50 54 63 70 73 61 40 17 351 357 345 316 304 295 300 309 323 336 337 339 346 350 349 347 351 347 339 330 305 269 245 240 234 226 224 219 211 206 204 206 207 207 207 208 210 208 203 203 202 199 199 200 198 197 199 201 202 203 206 206
86 76 69 68 78 87 84 63 34 19 17 7 2 9 11 1 8 57 79 78 84 71 55 54 55 54 59 52 36 29 26 27 24 354 353 353 328 318 307 318 325 332 357 360 4 10 0 352 349 353 354 347 338 321 286 254 240 232 224 222 218 210 204 203 206 207 205 205 208 210 208 207 208 205 201 200 201 200 200 201 201 202 205 208 207
86 81 82 84 86 82 71 47 22 16 15 7 4 12 20 18 15 34 95 92 90 91 77 66 62 62 60 40 16 7 1 2 8 2 347 329 320 344 334 337 347 347 4 5 5 12 4 357 352 350 353 351 344 330 297 266 245 233 225 220 214 207 202 202 204 205 205 206 208 209 209 209 210 209 205 203 203 204 204 204 203 204 206 209 205
91 92 94 89 75 59 51 29 4 5 10 7 10 16 21 28 22 14 51 88 90 98 91 71 64 63 54 42 19 3 5 2 359 1 353 329 307 331 337 337 343 332 348 354 353 5 8 5 0 351 351 356 353 339 301 264 247 234 222 214 207 202 201 204 206 204 204 206 207 208 208 209 209 210 209 207 205 206 208 207 206 206 208 210 206
96 100 95 68 36 37 38 18 350 353 11 8 13 21 26 35 32 13 24 72 93 103 95 77 72 70 53 42 35 18 29 26 16 13 9 344 317 308 318 319 312 310 323 333 342 0 9 9 6 358 356 2 3 353 320 261 243 232 217 206 200 197 199 205 208 206 205 207 208 208 208 210 210 211 212 211 209 208 210 209 209 209 209 211 209
92 93 65 26 31 32 26 14 357 1 33 23 18 23 28 38 43 33 31 58 97 90 77 76 79 71 56 54 70 71 51 42 35 30 29 22 5 346 338 322 300 293 301 308 327 356 11 12 9 5 4 6 9 7 350 276 238 226 211 202 199 198 199 203 207 209 209 210 210 210 209 210 211 212 214 214 212 211 212 212 212 211 210 211 212
95 82 45 34 33 25 8 6 2 33 49 37 29 24 24 34 46 53 45 52 75 73 64 66 60 53 55 66 75 73 56 46 47 44 37 39 34 23 15 352 303 282 284 289 308 345 8 15 11 10 10 10 16 17 8 329 243 224 213 205 203 202 201 203 207 209 212 212 212 211 211 212 212 213 215 214 213 212 213 214 214 213 213 212 213
103 76 51 40 31 17 360 3 20 70 52 39 33 23 19 29 43 54 53 52 65 70 66 63 53 48 53 59 61 62 56 48 47 43 36 38 30 14 14 14 356 303 266 270 289 323 2 17 10 9 11 14 23 26 19 5 285 231 222 212 207 207 206 207 208 207 209 211 212 213 214 215 214 215 215 215 214 213 214 216 215 214 214 214 214
104 70 53 37 28 17 6 21 52 53 41 35 30 19 14 20 32 45 51 51 59 67 70 67 59 57 54 49 44 40 39 36 33 32 27 24 17 3 11 20 15 5 273 257 272 300 347 13 5 7 12 17 26 31 29 22 357 248 230 223 217 218 217 215 214 210 210 210 212 214 216 217 217 217 216 215 215 214 216 219 218 215 215 214 214
98 71 58 37 28 22 20 43 54 42 37 31 19 11 7 8 14 32 40 41 47 62 80 81 73 68 58 50 42 35 33 27 20 15 5 2 359 350 6 21 20 19 3 281 277 290 320 358 3 12 16 20 27 30 35 34 23 332 243 237 233 230 225 223 220 213 212 213 213 214 216 217 217 216 216 216 217 216 218 221 220 217 214 212 212
98 83 65 45 32 26 28 46 46 37 35 22 10 4 358 359 2 14 28 42 48 55 83 87 82 74 59 57 55 47 45 34 19 7 356 357 356 343 358 12 17 18 14 4 334 293 276 344 8 21 17 17 24 28 37 42 37 34 356 268 251 241 232 230 225 217 216 216 215 215 215 217 216 215 216 217 218 219 219 220 221 219 214 211 212
93 76 52 47 33 25 31 41 34 29 26 10 5 3 355 353 353 1 21 50 59 42 57 54 57 65 53 63 71 56 51 40 25 15 11 17 14 357 358 3 8 10 11 23 21 324 213 155 38 29 23 19 19 21 31 38 41 43 38 22 320 258 240 235 230 223 222 221 219 218 218 218 218 217 217 218 219 220 219 218 219 221 217 213 211
117 97 36 50 29 27 44 46 20 9 5 354 356 0 356 350 346 359 21 53 63 27 23 15 17 27 29 56 81 63 53 48 37 29 28 19 3 352 351 352 353 1 11 37 55 58 139 140 71 25 23 17 10 9 17 23 31 36 36 39 34 2 256 239 235 229 228 226 221 221 222 222 222 220 219 219 220 220 219 218 218 220 220 216 213
128 119 13 25 22 33 77 79 307 306 339 342 346 351 349 341 341 359 19 46 63 23 13 3 12 22 8 18 58 45 47 48 42 23 3 340 331 328 328 338 343 353 9 29 52 68 83 95 71 27 21 12 2 9 21 8 13 28 36 46 46 42 43 328 244 238 237 234 228 226 226 226 225 224 222 222 221 220 220 220 219 219 219 217 215
126 108 30 37 83 293 155 193 250 282 323 336 340 341 340 338 343 355 13 35 55 36 14 360 11 20 11 13 3 277 357 25 20 334 328 329 326 306 292 316 334 340 355 10 37 64 71 78 75 45 31 13 358 17 84 287 254 227 64 62 56 51 52 53 53 43 296 248 235 232 232 230 229 227 225 224 223 222 221 221 220 220 219 218 217
122 106 82 92 147 217 231 233 264 295 320 333 338 338 334 332 345 358 16 39 56 64 19 355 7 12 12 48 75 81 358 348 340 310 316 329 337 318 296 312 319 314 319 1 46 66 64 70 80 60 28 17 20 70 128 99 67 67 80 80 73 64 60 60 59 52 35 23 308 247 242 235 232 231 228 227 225 224 223 222 221 220 220 219 218
121 123 128 141 173 221 238 251 273 298 319 333 339 334 318 315 339 1 27 48 54 69 13 344 353 356 6 53 51 51 32 346 325 314 320 330 348 6 5 344 313 302 303 329 93 87 76 73 82 81 13 15 46 81 85 73 67 62 77 87 84 82 91 91 79 67 39 17 4 338 302 249 235 235 233 231 230 227 225 224 222 221 221 221 220
132 147 167 183 208 232 239 255 281 309 326 335 341 328 306 307 331 354 36 62 44 66 5 337 335 331 328 322 325 349 9 356 335 327 336 348 359 14 26 15 332 310 326 82 128 114 96 78 73 73 280 297 333 93 76 65 66 70 92 105 28 9 118 134 140 140 73 21 355 334 321 302 263 246 240 238 235 232 229 226 224 223 223 223 222
146 167 186 198 218 236 246 270 304 328 335 337 345 342 315 305 322 332 336 221 271 303 319 313 313 313 308 304 314 320 325 329 329 333 345 1 7 14 30 33 35 21 355 42 108 119 80 347 340 320 269 274 275 261 259 276 298 314 277 229 268 286 278 269 265 261 255 253 257 280 297 291 285 275 260 251 243 237 236 233 230 228 226 225 224
159 181 200 210 228 256 274 299 327 339 342 344 355 6 348 319 323 316 251 249 275 307 324 330 336 334 320 305 312 320 320 317 314 315 322 336 346 351 358 2 3 356 333 330 330 317 314 313 305 297 285 283 286 282 277 274 275 280 277 269 263 258 260 263 267 270 269 266 262 255 256 266 270 268 265 263 255 243 240 238 235 232 230 227 225
169 188 211 227 245 280 314 340 344 343 346 354 5 16 11 356 6 48 100 318 2 9 5 6 10 6 354 342 336 339 341 335 324 317 319 327 332 336 344 349 348 347 339 328 322 316 315 316 312 307 299 290 288 288 288 285 282 285 287 284 277 267 259 255 255 258 261 265 266 261 254 254 254 251 248 248 247 235 220 226 237 234 230 227 225
172 200 232 249 273 332 359 354 347 344 351 6 17 12 5 12 40 72 73 50 39 30 13 2 1 357 351 356 6 7 4 3 3 5 2 357 353 351 353 357 355 350 345 337 330 322 318 319 318 315 311 304 296 290 287 286 285 285 287 290 287 279 272 266 261 258 255 256 260 261 256 252 251 244 234 230 238 232 205 188 214 218 216 218 220
183 216 245 274 326 352 355 352 348 349 3 19 20 7 3 25 59 85 79 51 35 25 12 359 350 351 358 9 13 9 5 9 18 22 17 9 4 360 355 355 354 352 348 339 333 327 319 317 319 321 321 317 308 299 292 285 280 277 279 284 286 278 270 267 266 264 261 258 258 261 258 251 249 242 229 224 235 237 211 185 187 167 159 181 190
191 215 245 310 336 338 346 352 352 359 16 23 16 8 17 46 69 90 86 53 28 17 14 11 360 355 2 6 8 8 10 14 15 12 8 2 355 348 343 341 338 338 339 334 327 323 318 318 322 327 327 321 315 312 306 292 280 275 275 280 283 274 259 255 258 261 265 263 262 264 260 251 247 242 228 222 230 238 220 195 194 182 166 170 175
186 196 221 273 305 326 348 358 1 10 19 19 16 22 47 71 80 79 74 58 25 12 12 13 8 1 1 2 6 10 11 14 12 6 4 1 354 347 345 342 334 324 319 317 317 317 319 320 322 325 327 324 317 315 317 313 304 294 285 283 285 282 266 258 259 259 261 262 262 262 257 247 244 243 235 223 222 234 228 208 203 192 172 174 179
185 197 221 248 278 336 1 4 5 16 21 22 28 42 69 86 88 66 64 64 26 13 13 12 8 4 3 4 5 7 7 9 6 3 1 357 352 355 2 359 350 335 316 309 309 311 315 318 317 317 320 322 319 315 319 326 321 308 301 298 291 284 277 267 264 262 257 250 249 255 252 241 237 241 239 224 213 224 228 213 207 199 183 180 180
198 207 227 258 321 354 6 6 12 28 32 36 45 57 82 94 79 47 61 66 26 17 13 9 7 4 3 3 3 4 5 4 359 356 354 349 345 353 2 2 1 355 339 326 320 315 316 318 318 318 317 318 320 316 316 320 318 311 308 307 301 290 286 280 267 262 253 236 233 246 252 238 228 229 229 219 211 217 219 212 211 205 193 189 188
206 208 226 321 3 4 8 15 34 40 41 46 52 61 86 99 71 37 50 47 19 15 8 6 6 5 5 7 8 8 4 358 355 352 349 345 343 350 354 358 1 358 351 344 335 324 322 322 319 319 318 320 319 316 314 317 320 324 322 315 308 300 298 296 275 260 251 235 230 237 246 240 228 224 221 217 217 217 210 206 211 210 201 199 198
200 205 230 356 13 16 23 41 40 37 37 43 49 57 82 102 84 34 21 9 10 8 0 2 7 13 18 17 16 12 5 360 357 355 354 356 358 350 346 347 353 353 350 347 342 334 332 329 325 324 322 323 322 318 316 318 319 321 320 314 309 304 299 294 275 258 252 243 236 235 238 241 237 232 226 220 218 217 212 209 213 214 210 207 206
200 208 278 8 16 20 25 34 33 31 29 30 34 40 68 99 92 14 349 350 2 3 356 360 9 20 23 19 15 11 5 3 1 358 2 10 9 346 338 339 343 345 346 349 349 348 344 337 331 327 325 321 318 312 309 308 308 310 312 311 308 304 300 294 276 260 254 250 245 239 237 238 239 240 237 230 224 221 220 219 220 223 224 220 215
191 194 22 15 10 11 15 23 26 26 23 19 18 20 39 91 31 330 329 341 357 360 354 359 11 20 20 16 11 7 4 4 2 1 7 13 13 352 328 321 326 333 342 352 354 350 343 334 327 323 320 316 311 307 306 304 302 302 303 305 305 302 299 294 284 275 265 252 242 237 235 234 236 239 241 238 231 227 226 226 226 228 230 230 225
185 187 348 5 3 3 8 19 24 20 16 10 11 14 20 41 288 314 315 329 354 359 354 359 11 15 13 9 5 4 6 5 2 3 7 12 14 359 335 320 310 312 325 342 345 340 332 324 322 321 316 311 310 311 310 309 310 308 303 303 304 301 298 293 285 278 272 261 247 234 229 226 228 231 234 235 231 226 225 226 227 229 232 234 233
188 193 297 333 345 352 356 4 19 15 5 2 12 18 15 357 313 315 307 314 344 359 354 357 7 9 5 1 360 4 7 4 1 4 8 11 14 5 353 357 0 340 330 336 336 334 325 318 320 324 318 312 313 316 313 312 314 314 313 311 309 305 299 294 290 285 275 267 260 247 231 220 218 223 226 226 225 224 222 221 222 227 231 232 230
186 197 260 289 319 337 341 349 6 5 355 359 16 22 18 9 336 305 293 299 320 344 347 350 0 2 357 353 355 1 5 2 359 4 10 16 20 17 16 23 24 15 0 345 342 342 334 326 330 336 331 323 320 320 320 320 321 321 320 319 314 308 304 301 297 290 279 269 265 255 235 219 215 220 222 221 223 226 226 225 224 224 228 230 227
182 196 236 272 309 326 331 342 354 353 352 9 22 24 23 20 1 313 290 291 294 301 323 339 348 351 348 347 351 358 2 3 3 6 12 19 21 20 28 34 28 18 6 354 349 348 344 344 349 347 338 331 325 326 329 327 324 320 315 313 311 306 305 306 295 284 278 271 266 259 245 228 222 226 226 221 221 223 227 230 229 226 228 233 235
191 201 233 284 312 322 327 335 345 354 10 21 23 21 21 20 12 351 316 289 277 272 288 320 338 344 345 347 351 357 2 5 6 6 10 18 20 20 33 40 35 30 27 11 356 347 346 350 352 346 340 337 334 334 336 334 331 321 311 310 310 307 303 297 284 278 275 268 263 261 254 242 235 238 239 229 223 222 222 226 229 227 227 229 231
201 209 244 289 304 314 322 328 356 37 32 26 20 16 15 16 13 7 351 302 264 258 273 313 340 352 350 348 352 2 7 7 6 5 8 18 23 24 34 36 30 33 35 27 17 9 1 355 350 346 345 344 344 343 345 351 354 345 328 321 319 321 317 300 277 274 272 269 267 260 254 248 239 240 244 239 233 230 224 222 224 225 226 224 221
202 227 258 279 297 323 13 69 70 54 39 27 17 11 10 12 12 10 2 333 261 252 281 322 344 354 350 349 357 11 16 14 13 11 14 21 23 23 29 27 24 29 30 25 22 23 19 10 6 2 359 356 357 3 6 0 358 356 349 340 336 336 332 316 288 271 263 264 263 254 251 247 234 232 236 235 234 237 233 229 223 218 221 221 216